Weather in Kol'chugino

Russia / Republic of Crimea     44°56′45″N   33°47′37″E
temp.,
°C
wind,
m/s
gust,
m/s
humid.,
%
clouds,
%
prec.,
mm/h
press.,
hPa
HPBL,
m
9 may, sun
sun900:00+11n61158100 0.0 1016767
03:00+9n61067100 0.0 1017659
06:00+7nnw38791 0.0 1020321
09:00+11nnw68585 0.0 10221299
12:00+14nw78415 0.0 10231994
15:00+15nw783956 0.0 10242389
18:00+14nw664583 0.0 10251810
21:00+9nw466315 0.0 1027117
10 may, mon
mon1000:00+7sse21765 0.0 102828
03:00+6se11785 0.0 102815
06:00+6e227512 0.0 102821
09:00+12nne23504 0.0 1027792
12:00+16nnw453716 0.0 10262318
15:00+15wnw664518 0.0 10251508
18:00+15n45395 0.0 10231763
21:00+9n34605 0.0 102456
11 may, tue
tue1100:00+7s11715 0.0 102222
03:00+7wsw11855 0.0 102035
06:00+6se11825 0.0 102025
09:00+13nw465486 0.0 10181026
12:00+12nw4658100 0.0 1018802
15:00+14wsw4559100 0.0 1016774
18:00+13nw3676100 0.0 1015518
21:00+11ene1289100 0.3 101544
12 may, wed
wed1200:00+10ne0090100 0.0 101415
03:00+10e009197 0.0 101317
06:00+10ese1190100 0.0 101323
09:00+13ssw348099 0.1 1013535
12:00+13sw567684 0.3 1013492
15:00+16w54636 0.3 1013781
18:00+15w32665 0.0 1013466
21:00+10nne228736 0.0 101316
13 may, thu
thu1300:00+10ene33885 0.0 101227
03:00+9e2284100 0.0 101219
06:00+10e3356100 0.0 101132
09:00+19e123944 0.0 1010299
12:00+20w3241100 0.0 1010382
15:00+21wnw434145 0.0 1010361
18:00+18nw235341 0.0 1010181
21:00+14ne33702 0.0 101029